SENTINEL-1B (41456 NORAD) Tracking and Keplerian Element Data

This shows tracking and keplerian element data for the satellite.

Feedback or suggestion? Click here.




ElementValue
Catalog41456
NameSENTINEL-1B
Epoch Orbit13998
Epoch Day345.7612205
Epoch Year2018
RAAN350.4837
Inclination98.1815
Eccentricity0.0001354
Argument of Perigee85.9708
Mean Anonmoly274.1635
Mean Motion14.59200443
Decay Rate5.4E-07
L11 41456U 16025A 18345.76122050 .00000054 00000-0 21205-4 0 9991
L22 41456 98.1815 350.4837 0001354 85.9708 274.1635 14.59200443139984

Live tracking and technical data element details for SENTINEL-1B (NORAD 41456). SENTINEL-1B can be tracked NOW for your location showing map with azimuth and elevation plus other details from your city location.

Track the satellite on the map from your city or location and see movement details for azimuth, elevation, latitude, longitude, range, height, and movement on the map or in text.







IsCatalogInMostPopularTable: catalog: 41456, numindb: 85
Update: records affected: 1



GetName: 41456 SENTINEL-1B

Hit Count: updated at: Thu, 13 Dec 2018 03:59:20 GMT